EHI
4 5 7 8 7 7 10 11 12 11 9 6 4 4 6 6 6 7 12 22 31 34 32 31 30 25 18 12 9 9 8 6 5 4 2 1 0 0 0 0 0 0 0
6 7 8 9 9 9 11 13 13 11 9 6 5 5 7 7 7 10 14 21 29 34 35 34 34 31 24 17 14 12 9 6 4 3 2 1 0 0 0 0 0 0 0
11 12 11 10 9 10 14 17 15 12 10 7 7 9 10 11 10 12 14 19 24 30 35 38 38 37 30 23 19 16 12 8 5 3 2 1 0 0 0 0 0 0 0
16 17 15 11 9 10 14 17 17 16 13 10 9 11 14 16 15 13 15 18 20 24 30 36 38 37 32 25 20 18 16 13 10 7 6 4 2 0 0 0 0 0 0
15 17 15 11 9 9 11 13 16 19 19 14 10 11 14 18 19 16 15 18 22 23 25 30 34 34 31 25 22 21 20 17 14 12 9 7 5 2 0 0 0 0 0
13 14 12 10 9 8 10 12 14 18 21 17 11 10 11 15 19 18 15 17 21 22 21 25 28 28 26 24 22 22 20 17 14 12 9 7 6 3 1 0 1 0 0
16 14 12 11 11 11 12 14 15 17 19 18 14 10 9 12 16 18 17 18 19 17 18 22 25 25 23 21 21 20 19 17 15 12 9 7 6 4 1 1 1 0 0
17 15 13 13 13 14 14 15 16 16 17 18 17 12 8 9 11 12 13 15 15 13 14 19 26 28 25 21 20 20 19 19 17 15 13 12 9 5 3 2 1 1 0
17 15 15 15 14 15 14 14 14 15 15 15 14 10 7 6 6 6 7 9 10 10 10 14 23 30 28 24 23 21 20 18 16 16 16 16 12 8 5 4 3 2 1
16 14 15 16 15 15 14 13 14 15 15 12 9 7 7 6 6 5 3 4 6 8 9 11 17 25 26 25 25 22 19 16 14 14 15 15 13 10 7 6 5 4 3
17 16 15 16 15 12 11 12 12 14 14 11 7 7 8 9 8 6 4 3 3 6 9 12 16 20 23 24 22 21 18 14 12 12 12 13 13 12 10 8 6 4 3
23 20 18 17 14 11 10 11 10 11 12 11 10 10 10 10 9 8 6 3 2 4 7 12 16 18 20 22 19 18 17 13 10 9 9 9 10 11 10 9 6 4 3
28 26 23 21 17 13 13 13 13 12 13 12 12 12 13 13 12 10 7 4 2 3 6 10 14 15 17 20 18 15 13 10 7 6 5 4 5 6 8 7 5 4 4
27 28 30 29 23 18 17 18 17 17 17 14 13 13 14 15 13 10 7 5 4 4 4 7 11 13 16 18 17 14 11 7 3 2 1 1 1 2 3 3 2 3 3
23 29 35 35 29 24 22 21 20 21 19 15 13 14 14 13 12 10 8 9 8 6 3 5 10 14 16 16 14 14 13 7 2 0 0 0 0 1 1 0 0 1 2
25 30 34 34 33 29 26 24 23 22 20 16 14 14 13 12 12 12 11 12 11 7 5 6 10 14 15 13 12 14 16 11 4 1 0 0 0 0 0 0 0 0 1
28 30 32 33 33 31 29 26 24 22 20 17 14 13 14 15 16 16 15 13 10 8 7 6 9 12 13 12 11 13 15 12 7 3 0 0 0 0 0 0 0 0 0
29 30 31 32 32 31 30 28 24 22 21 19 16 15 16 17 18 18 16 14 11 9 7 4 5 7 8 9 10 10 10 10 8 3 1 0 0 0 0 0 0 0 0
32 32 31 32 32 31 29 28 26 24 23 22 19 17 16 15 16 17 17 16 13 10 6 4 3 3 3 4 6 7 6 6 6 4 1 0 0 0 0 0 0 0 0
35 34 33 33 33 31 28 28 26 24 24 24 21 17 15 13 13 14 16 17 15 12 8 5 3 2 1 2 4 4 4 5 5 4 1 0 0 0 0 0 0 0 0
37 36 35 35 34 29 26 26 24 23 25 25 22 18 14 11 9 9 10 11 13 13 11 7 4 2 3 4 4 2 2 3 3 3 3 2 1 0 0 0 0 0 0
42 40 36 34 32 26 21 20 20 22 25 27 25 19 13 9 7 6 5 4 5 8 8 7 5 4 4 4 3 2 2 2 3 4 6 5 3 2 0 0 0 0 0
48 44 39 36 31 23 15 13 16 21 25 28 27 21 14 9 8 7 5 3 2 3 3 4 5 5 4 3 2 2 3 3 4 6 7 7 6 4 2 1 0 0 0
50 47 43 40 35 22 11 8 12 18 22 24 24 21 17 12 7 6 6 5 5 3 1 1 3 3 1 1 1 1 1 2 4 6 6 6 6 6 5 2 1 0 0
50 49 47 46 39 23 8 3 7 14 18 18 16 15 15 11 4 2 4 6 7 5 2 1 1 1 0 0 0 0 0 0 2 3 3 4 5 6 5 3 1 0 0
50 49 50 49 41 24 8 2 4 11 15 13 11 9 9 7 3 1 3 6 7 7 4 1 0 0 0 0 0 0 0 0 0 1 2 3 4 4 4 3 1 0 0
Wind_Speed
1 1 1 1 2 2 2 2 2 2 2 3 4 3 2 2 1 2 5 11 12 11 10 10 9 9 9 9 8 8 8 7 7 7 7 7 7 7 7 7 6 6 6
1 0 1 1 1 1 1 2 3 2 2 2 3 3 3 2 2 3 4 7 11 11 11 11 10 10 10 9 9 8 9 8 7 7 7 7 7 7 7 7 7 7 6
1 0 1 1 1 2 2 2 2 2 2 2 2 4 3 2 2 3 4 4 6 10 12 12 11 10 10 10 10 9 8 8 8 8 7 7 7 7 7 7 7 7 6
2 1 1 1 1 1 2 2 1 1 1 1 1 3 2 2 3 3 3 4 4 5 9 12 12 11 11 11 10 10 9 9 8 8 8 8 8 7 7 7 7 7 7
1 1 1 1 2 1 1 1 1 1 1 1 2 2 3 2 2 3 3 4 3 4 5 9 12 12 12 11 11 10 10 10 9 9 9 9 9 8 8 8 7 8 8
1 1 1 1 1 1 1 1 0 0 1 2 2 2 2 2 2 2 3 3 3 4 4 6 6 8 11 10 10 10 10 10 10 10 10 9 9 9 9 9 9 8 8
1 1 1 1 1 0 0 1 1 1 1 1 1 2 3 3 3 3 2 2 3 3 4 5 5 4 5 9 9 9 9 10 10 10 9 9 9 9 9 9 9 9 9
1 2 1 1 0 0 0 1 1 1 2 1 1 1 1 2 2 2 2 3 2 2 3 5 5 5 4 4 6 9 9 9 10 9 9 9 9 9 9 9 9 9 9
1 1 1 1 1 1 1 2 2 2 2 2 1 1 1 1 2 2 1 1 1 1 2 2 4 4 5 4 4 8 9 9 9 10 10 9 9 9 9 9 9 8 9
1 1 1 1 1 1 0 2 0 2 2 2 1 1 2 1 1 1 2 1 1 2 2 1 2 3 4 4 4 7 9 8 8 9 9 9 9 9 9 9 9 9 8
1 1 1 0 1 1 1 1 1 2 1 1 1 1 2 1 2 2 2 2 1 1 1 2 1 1 3 4 3 6 9 9 8 7 8 8 8 9 9 9 9 9 8
2 2 1 1 1 1 1 1 1 1 1 2 2 2 1 1 1 0 1 2 2 2 1 1 1 1 2 2 3 5 8 8 8 7 6 6 6 6 8 9 9 9 8
2 2 2 2 1 1 1 0 1 1 1 1 2 2 2 2 1 1 1 2 2 2 1 0 0 1 1 3 3 5 6 8 7 7 6 5 5 5 5 6 7 8 8
2 3 2 2 2 1 1 1 1 1 1 1 2 2 2 2 1 1 1 1 2 1 1 1 1 1 0 2 4 6 4 7 7 7 6 6 6 5 5 5 5 5 5
2 2 3 2 1 1 1 1 0 1 1 1 2 2 2 2 2 2 1 1 1 2 2 1 1 0 0 1 4 3 3 6 7 7 7 7 6 6 5 5 5 5 5
1 1 2 2 1 2 1 1 1 0 0 1 1 2 2 2 3 2 2 2 1 1 2 2 1 0 0 0 3 2 2 5 7 7 7 7 8 7 6 6 5 5 5
1 2 2 2 2 2 2 1 1 1 1 1 1 1 1 2 2 3 3 2 2 1 2 2 2 1 1 1 1 1 2 3 4 8 8 9 8 7 6 6 5 5 5
2 2 2 2 2 2 2 2 2 1 1 0 1 1 2 1 2 2 2 3 3 2 2 3 3 2 2 1 1 2 2 2 2 6 8 8 8 7 6 5 5 5 5
2 2 2 2 2 2 2 2 1 1 1 0 1 1 1 1 2 2 2 2 2 3 1 2 3 2 1 2 2 2 2 1 1 2 4 6 7 7 6 6 5 5 5
3 3 3 3 3 2 2 1 1 1 1 0 1 1 1 1 1 2 2 2 2 2 2 2 2 2 1 1 1 1 1 1 1 1 0 2 5 6 5 5 6 5 5
3 3 3 3 3 3 2 2 2 2 2 1 1 1 0 1 1 2 2 2 3 2 2 2 2 2 1 1 1 2 1 1 1 1 0 0 1 2 3 4 5 5 5
3 3 3 3 3 3 1 3 2 2 2 2 1 1 2 1 1 0 1 2 2 2 2 2 2 2 2 2 2 3 2 2 2 1 0 1 1 1 2 2 4 5 5
3 3 3 3 2 1 2 3 2 2 2 2 2 2 2 0 1 1 1 2 2 3 4 3 2 3 3 2 3 3 3 3 3 2 1 2 1 1 2 2 4 6 6
3 3 3 3 3 3 3 3 2 2 2 2 1 1 1 1 1 2 2 2 2 2 3 3 3 3 3 2 2 3 3 3 2 2 1 2 1 1 1 1 5 6 6
3 3 3 3 3 3 4 3 2 2 2 2 2 1 0 1 1 2 2 2 2 3 3 3 3 3 3 3 2 2 2 2 3 2 1 1 1 1 1 1 3 6 7
3 3 3 3 4 3 4 4 3 2 2 2 1 1 1 1 1 0 2 2 3 3 4 4 4 5 5 4 4 3 2 2 2 2 1 1 1 1 1 0 2 2 3
Wind_Direction
137 161 126 212 214 182 195 211 219 239 259 251 251 230 223 244 199 159 150 170 175 180 184 186 191 195 197 200 203 205 205 207 207 207 207 208 208 209 209 208 210 213 214
112 41 185 247 210 209 201 202 208 217 233 253 273 271 235 225 201 166 157 174 182 184 187 192 196 200 201 201 203 207 210 210 208 206 205 208 209 209 212 214 213 213 215
151 222 241 243 221 210 198 211 216 217 229 237 255 266 250 225 199 196 171 176 183 192 195 197 200 203 205 205 205 206 210 211 211 208 208 210 211 212 215 217 217 217 218
207 245 245 256 241 231 202 196 198 213 251 244 244 260 258 219 206 204 196 191 184 190 197 201 204 205 206 209 209 208 209 210 211 213 213 213 214 215 216 219 220 219 220
218 256 251 266 261 248 232 237 130 164 251 267 256 238 241 224 212 218 197 190 187 175 178 193 202 205 208 209 211 211 211 211 213 215 217 218 218 220 220 222 223 223 223
205 254 231 258 286 327 349 354 39 235 240 255 279 294 279 252 212 206 208 190 180 186 180 173 187 205 209 207 208 211 215 215 215 217 220 220 220 220 222 223 224 226 224
199 230 294 315 304 278 272 279 259 249 238 223 240 289 283 263 224 197 201 190 176 183 178 167 178 181 191 201 208 211 214 218 219 219 222 224 225 222 221 222 221 223 226
210 214 222 275 272 227 224 277 272 259 261 228 197 265 298 306 283 226 190 194 195 191 177 177 179 177 180 173 196 207 215 218 219 221 224 225 226 224 219 221 221 222 225
205 254 186 278 297 242 203 254 263 261 253 262 210 206 231 269 297 282 233 188 183 194 212 190 179 175 179 167 180 200 209 215 219 223 224 225 224 223 220 222 225 224 225
193 208 200 264 298 312 292 273 188 275 269 271 257 219 222 207 241 302 305 285 196 217 224 214 204 172 175 166 167 172 194 205 213 221 226 227 224 221 222 224 224 226 228
190 176 187 262 301 330 338 344 5 325 304 296 294 278 269 235 224 213 269 290 286 243 211 178 193 170 180 159 163 176 185 195 202 213 223 227 224 225 225 224 224 228 233
175 167 174 191 242 304 326 341 312 295 293 310 313 302 296 297 288 249 258 268 275 276 248 173 174 179 169 148 160 163 174 184 192 199 206 212 212 219 221 222 225 227 230
169 177 188 160 184 205 235 252 265 290 285 292 295 298 303 293 278 260 269 275 277 277 277 312 340 157 166 136 139 156 169 178 186 191 192 196 204 212 217 223 227 230 232
175 166 174 166 181 200 230 211 261 263 282 285 293 304 300 299 305 267 248 259 282 301 310 262 271 231 113 132 154 178 172 177 184 188 194 196 200 206 209 216 220 225 229
189 149 163 170 183 205 232 213 239 316 350 321 310 316 311 304 308 311 302 270 253 275 280 256 218 145 106 122 153 179 165 179 187 192 197 201 201 200 201 206 212 220 224
163 155 169 174 183 201 207 226 247 258 34 324 306 353 338 328 336 328 331 328 320 275 277 297 302 308 21 248 165 191 170 175 192 192 197 203 201 198 199 204 210 218 219
192 179 175 175 198 221 213 199 237 235 217 282 317 346 342 335 336 335 343 330 336 339 290 297 310 319 325 310 115 222 204 184 189 189 198 207 203 195 197 204 211 216 220
192 179 177 187 210 215 214 213 237 250 253 288 322 342 332 333 352 339 335 332 337 330 302 298 301 310 309 313 235 238 250 237 202 188 195 203 199 194 195 203 211 214 218
191 187 187 196 216 224 212 213 213 227 265 303 309 316 318 348 337 327 318 323 326 324 303 286 291 293 296 329 306 280 277 289 271 173 189 194 193 196 197 202 210 214 217
190 191 200 208 208 207 203 201 212 208 207 250 267 285 310 337 327 324 315 321 309 308 295 286 280 271 274 288 281 287 297 304 296 317 264 165 179 188 199 204 207 211 215
201 189 200 216 210 200 208 191 213 208 197 215 226 224 129 78 356 320 311 326 323 308 299 299 298 307 317 331 315 300 288 282 274 203 188 238 163 179 200 213 211 208 208
200 195 205 213 223 231 191 160 188 227 209 208 209 221 191 165 128 345 343 330 306 288 303 304 301 308 312 321 327 311 304 300 292 268 263 274 194 202 208 193 193 192 194
199 202 206 208 201 177 137 141 166 211 227 212 217 247 273 188 82 332 301 301 308 286 254 249 276 287 293 301 303 301 301 291 276 269 256 260 238 230 233 207 181 179 181
204 210 211 205 187 175 168 163 177 209 231 223 219 249 278 10 352 355 320 336 313 303 274 251 255 272 291 304 289 278 275 291 281 280 257 263 258 248 236 176 177 176 183
205 212 207 192 177 173 183 173 175 216 229 236 217 251 241 117 46 0 311 307 312 315 303 299 273 260 269 292 294 302 296 292 294 291 289 266 272 271 230 191 178 182 188
210 215 205 178 169 165 176 171 188 219 219 222 194 158 106 142 150 358 299 299 297 303 312 301 287 272 258 256 249 239 259 273 289 304 331 323 293 311 300 199 148 169 188